sat.trackr.live / text

‹ back to catalog

WISDOM A

NORAD 66688 · 2025-276Y

PAYLOAD ACTIVE UNKNOWN

§ Identity

Operator
Country
HUN
Launch date
2025-11-28
Launch site
AFWTR
Launch vehicle
Mass (kg)
RCS (m²)

External: N2YO · Heavens-Above · Gunter

§ Orbital elements

Epoch: 2026-05-25T03:22:16.730688Z

Period
94.79 min
Inclination
97.4225°
Eccentricity
0.0006546
Mean motion
15.19075359 rev/d
Perigee alt
504.1 km
Apogee alt
513.1 km
Semi-major
6,886.8 km
B*
2.3449e-4
RAAN
219.0141°
Arg perigee
83.8471°
Mean anomaly
276.3510°
Rev number
2,691

§ Raw data

WISDOM A1 66688U 25276Y   26145.14047142  .00004852  00000+0  23449-3 0  99902 66688  97.4225 219.0141 0006546  83.8471 276.3510 15.19075359 26912

JSON: /api/v1/satellites/66688 · /tle

For live sub-satellite position, see the globe view (requires WebGL).

§ Visibility from observer

Set your observer location to see the next 7 days of passes ≥ 10°. The values pass through the URL so the page stays shareable.

No JS? Fill the form by hand. The geolocation button needs JavaScript.